Hourly Data Report for December 05, 2021

CARBERRY CS
MANITOBA
Current Station Operator: ECCC - MSC

49°54'20.900" N
99°21'26.800" W
383.50 m
5010547
71170
WZE

Download Data

Hourly Data (December 2021)
Hourly Data Report for December 5, 2021
TIME
LST
Temp Definition
°C
Dew Point Definition
°C
Rel Hum Definition
%
Precip. Amount Definition
mm

Wind Dir Definition
10's deg

Wind Spd Definition
km/h
Visibility Definition
km
Stn Press Definition
kPa
Hmdx Definition


Wind Chill Definition


Weather Definition


00:00 -5.0 -7.2 84 0.0 16 10   96.75   -9 LegendNANA
01:00 -5.1 -7.1 85 0.0 15 11   96.66   -10 LegendNANA
02:00 -5.2 -6.9 87 0.0 14 10   96.63   -10 LegendNANA
03:00 -4.6 -6.1 89 0.0 11 9   96.55   -8 LegendNANA
04:00 -4.1 -4.8 95 0.2 8 15   96.47   -9 LegendNANA
05:00 -4.1 -4.8 95 0.7 7 17   96.36   -10 LegendNANA
06:00 -4.1 -4.9 94 1.0 6 23   96.32   -11 LegendNANA
07:00 -4.2 -4.9 94 0.5 5 19   96.35   -10 LegendNANA
08:00 -6.9 -8.0 92 0.2 2 23   96.36   -14 LegendNANA
09:00 -8.8 -10.3 89 0.2 2 27   96.42   -18 LegendNANA
10:00 -9.9 -11.6 87 0.0 1 29   96.49   -19 LegendNANA
11:00 -10.0 -12.1 84 0.2 36 31   96.59   -20 LegendNANA
12:00 -9.8 -11.9 84 0.0 1 22   96.68   -18 LegendNANA
13:00 -9.8 -12.1 84 0.0 2 27   96.71   -19 LegendNANA
14:00 -11.9 -14.1 84 0.0 36 33   96.82   -22 LegendNANA
15:00 -13.3 -15.6 83 0.0 36 35   96.98   -25 LegendNANA
16:00 -13.8 -16.0 84 0.0 36 32   97.16   -25 LegendNANA
17:00 -15.3 -17.7 82 0.0 35 29   97.37   -26 LegendNANA
18:00 -16.0 -18.3 83 0.2 35 23   97.50   -26 LegendNANA
19:00 -16.9 -20.2 75 0.0 34 27   97.62   -28 LegendNANA
20:00 -17.7 -21.7 70 0.0 35 27   97.73   -29 LegendNANA
21:00 -18.8 -22.3 74 0.0 35 16   97.82   -28 LegendNANA
22:00 -20.7 -24.0 74 0.0 31 10   97.86   -28 LegendNANA
23:00 -21.2 -24.6 74 0.0 30 12   97.92   -29 LegendNANA

Notes on Data Quality.

Legend

  • E = Estimated
  • M = Missing
  • NA = Not Available*
  • [empty] = Indicates an unobserved value
Date modified: